Weather Roundup
Issued by NWS Chicago, IL

Home | Current Version | Previous Version | Graphics & Text | Print | Product List | Glossary On
Versions: 1 2 3 4 5 6 7 8 9 10 11 12 13 14 15 16 17 18 19 20 21 22 23 24 25 26 27 28 29 30 31 32 33 34 35 36 37 38 39 40 41 42 43 44 45 46 47 48 49 50
000
NZUS59 KLOT 281009
HRRLOT

CHICAGO AREA WEATHER ROUNDUP
NATIONAL WEATHER SERVICE CHICAGO/ROMEOVILLE IL
500 AM CDT SUN AUG 28 2016

NOTE: "FAIR" INDICATES FEW OR NO CLOUDS BELOW 12,000 FEET WITH NO
SIGNIFICANT WEATHER AND/OR OBSTRUCTIONS TO VISIBILITY.

* THESE STATIONS ARE NOT UNDER NWS QUALITY CONTROL. THEY ALSO MAY NOT
  REPORT WEATHER SUCH AS PRECIPITATION OR FOG.

ILZ005-006-012>014-019>023-281100-
NORTHEAST ILLINOIS

CITY           SKY/WX    TMP DP  RH WIND       PRES   REMARKS
OHARE          PTCLDY    72  68  87 N6        30.14R
MIDWAY         PTCLDY    75  69  81 N5        30.14R
AURORA         CLEAR     67  66  97 CALM      30.14R
LANSING*       PTCLDY    71  71 100 W3        30.14S
JOLIET*        PTCLDY    71  70  99 N3        30.14R FOG
WAUKEGAN       CLOUDY    69  68  96 E3        30.15R FOG
DUPAGE AIRPORT CLEAR     68  66  93 N3        30.13S
WHEELING       CLEAR     70  69  97 CALM      30.14S
KANKAKEE*      CLOUDY    72  70  93 CALM      30.14S
MORRIS*        CLEAR     71  70  96 CALM      30.12R
LEWIS AIRPORT* PTCLDY    69  69 100 CALM      30.14R FOG
$$

WIZ051-052-058>065-066-070>072-281100-
SOUTHEAST WISCONSIN

CITY           SKY/WX    TMP DP  RH WIND       PRES   REMARKS
MILWAUKEE      PTCLDY    65  63  93 CALM      30.14R FOG
KENOSHA*       FOG       66  65  96 CALM      30.15R VSB 1/4
RACINE*        CLOUDY    67  65  93 CALM      30.16R FOG
BURLINGTON     FOG       63  63  99 CALM      30.15R VSB<1/4
WAUKESHA       FOG       61  61 100 CALM      30.16R VSB 1/4
$$

INZ001>003-010>013-019-020-281100-
NORTHWEST INDIANA

CITY           SKY/WX    TMP DP  RH WIND       PRES   REMARKS
GARY*          MOCLDY    75  73  94 CALM      30.14R
MICHIGAN CITY* NOT AVBL
RENSSELAER*    NOT AVBL
VALPARAISO     MOCLDY    72  70  93 S3        30.16R
$$

LMZ740>746-281100-
SOUTHERN LAKE MICHIGAN

STATION/POSITION TIME  SKY/WX   TEMP WIND        PRES    VSBY
                                AIR  DIR/SP/G
                 (UTC)          (F)  (DEG/KT/KT) (MB)    (MI)
HARRISON CRIB    0900            77  320/  6/  6   N/A
BURNHAM HARBOR   1000            72   10/  6       N/A
CALUMET HARBOR   0900            74  210/  2/  2 1019.6R
BURNS HARBOR     0903            74  190/  6/  9 1020.7R
MICHIGAN CITY    0900            75  170/  7/  7   N/A
$$

ABBREVIATIONS USED IN REMARKS
   TC - TEMPERATURE IN CELSIUS
  WCI - WIND CHILL INDEX
   HX - HEAT INDEX
  VSB - VISIBILITY
$$




USA.gov is the U.S. government's official web portal to all federal, state and local government web resources and services.